Location: Newark
(19.2128°S, 49.7858°W)
Time: 10:04:11
(UTC+00:00)

Envisat - Pass Details

Date: 01 September 2019
Orbit: 764 x 766 km, 98.1° (Epoch: 16 September)

Event Time Altitude Azimuth Distance (km) Brightness Sun altitude
Rises 08:32:23 0° 58° (ENE) 3,221 7.4 -13.7°
Reaches altitude 10° 08:36:17 10° 88° (E) 2,305 7.0 -12.8°
Maximum altitude 08:38:04 12° 109° (ESE) 2,181 6.5 -12.4°
Drops below altitude 10° 08:39:52 10° 130° (SE) 2,313 6.2 -12.0°
Sets 08:43:47 0° 161° (SSE) 3,249 6.4 -11.1°
